Content
SEND FEEDBACK

United States of America Flag

GREENSBORO, NORTH CAROLINA


Home > North America > United States > North Carolina
Elevation: 270 meters     Latitude: 36 05N     Longitude: 079 57W

WEATHER
 
SELECT A DAY
Number of Records: 120,143;   Date Range: 1/1/95 - 3/22/16
 
SHARE

PRINT THIS DATA

[ ← Previous Day ]
WEATHER ALMANAC - 30 JANUARY, 2013
[ Next Day → ]
[ °F ]   °C
Weather ElementAverageHighLow
Temperature18.4 °C22 °C (3:20 pm)13.9 °C (11:54 pm)
Dewpoint15.4 °C17 °C (12:03 pm)12.8 °C (11:54 pm)
Humidity83.3 %94 % (9:20 pm)63 % (4:54 pm)
Barometer1005.4 hPa1015.2 hPa (1:54 am)994.6 hPa (8:54 pm)
Wind Speed31.9 km/h46.3 km/h (9:54 pm)
Wind Gust66.6 km/h (8:54 pm)
Weather ElementAverage
Visibility13.5 km
Wind DirectionSSW (197.9 °)

Weather ElementTotal
Precipitation46.74 mm
Heating Degree Days0.4 (Base 18.3)
Growing Degree Days7.9 (Base 10)
Averaged from 34 records on 30 January, 2013
WEATHER CONDITIONS BREAKOUT
WIND DIRECTION BREAKOUT
WEATHER BY HOUR - 30 JANUARY, 2013
[ °F ]   °C
Local TimeTemperatureDewpointHumidityBarometerVisibilityWind DirectionWind SpeedGust SpeedPrecipitationEventsConditions
1:54 AM16.7 °C13.9 °C84 %1015.2 hPa16.1 kmSSW (200°)24.1 km/h35.2 km/hMostly Cloudy
2:40 AM17 °C14 °C82 %1015.2 hPa16.1 kmSSW (200°)22.2 km/hOvercast
2:54 AM16.7 °C14.4 °C86 %1014.6 hPa16.1 kmSSW (200°)24.1 km/hOvercast
3:54 AM17.2 °C14.4 °C84 %1013.9 hPa16.1 kmSSW (200°)24.1 km/hOvercast
4:54 AM17.2 °C15 °C87 %1012.9 hPa16.1 kmSouth (190°)22.2 km/hOvercast
5:54 AM17.2 °C15 °C87 %1012.5 hPa16.1 kmSSW (200°)18.5 km/h35.2 km/hOvercast
6:46 AM18 °C15 °C83 %1012.5 hPa16.1 kmSSW (200°)31.5 km/h42.6 km/hOvercast
6:54 AM17.8 °C15 °C84 %1011.5 hPa16.1 kmSouth (190°)27.8 km/h42.6 km/hOvercast
7:35 AM18 °C16 °C88 %1011.9 hPa16.1 kmSouth (190°)24.1 km/hOvercast
7:54 AM18.3 °C15.6 °C84 %1010.8 hPa16.1 kmSouth (190°)25.9 km/h40.7 km/hOvercast
8:54 AM18.9 °C16.1 °C84 %1010.2 hPa16.1 kmSouth (180°)33.3 km/h59.2 km/hOvercast
9:54 AM18.3 °C16.7 °C90 %1010.2 hPa16.1 kmSSW (200°)25.9 km/h37 km/h0 mmOvercast
10:54 AM18.3 °C16.7 °C90 %1010.2 hPa16.1 kmSSW (200°)33.3 km/h44.4 km/h0 mmOvercast
11:54 AM18.3 °C16.7 °C90 %1008.1 hPa9.7 kmSSW (200°)31.5 km/h44.4 km/h0 mmRainLight Rain
12:03 PM19 °C17 °C88 %1008.5 hPa12.9 kmSSW (200°)31.5 km/h40.7 km/hOvercast
12:15 PM19 °C17 °C88 %1008.5 hPa16.1 kmSSW (200°)35.2 km/h50.1 km/hOvercast
12:54 PM19.4 °C16.7 °C84 %1006.8 hPa16.1 kmSouth (190°)31.5 km/h55.5 km/h0 mmOvercast
1:39 PM19 °C17 °C88 %1005.8 hPa16.1 kmSouth (190°)31.5 km/h48.1 km/h0 mmOvercast
1:54 PM20 °C16.7 °C81 %1004.7 hPa16.1 kmSSW (200°)35.2 km/h55.5 km/h0 mmOvercast
2:54 PM21.1 °C15.6 °C71 %1003.4 hPa16.1 kmSouth (190°)33.3 km/h57.5 km/hOvercast
3:20 PM22 °C16 °C69 %1003.7 hPa16.1 kmSouth (180°)44.4 km/h57.5 km/hMostly Cloudy
3:54 PM21.7 °C15 °C66 %1002 hPa16.1 kmSouth (180°)31.5 km/h48.1 km/hMostly Cloudy
4:54 PM21.7 °C14.4 °C63 %1001 hPa16.1 kmSouth (180°)38.9 km/h57.5 km/hMostly Cloudy
5:54 PM21.1 °C13.9 °C63 %999.7 hPa16.1 kmSouth (180°)35.2 km/h57.5 km/hMostly Cloudy
6:54 PM20.6 °C13.3 °C63 %997.6 hPa16.1 kmSouth (170°)38.9 km/h59.2 km/hOvercast
7:54 PM18.3 °C15 °C81 %997 hPa6.4 kmSouth (180°)42.6 km/h57.5 km/h0.25 mmRainLight Rain
8:23 PM18 °C16 °C88 %996.6 hPa6.4 kmSouth (180°)33.3 km/h55.5 km/h1.27 mmRainRain
8:54 PM18.9 °C15.6 °C81 %994.6 hPa9.7 kmSouth (190°)44.4 km/h66.6 km/h2.29 mmRainLight Rain
9:11 PM18 °C16 °C88 %997.3 hPa1.9 kmWest (260°)38.9 km/h61.2 km/h1.27 mmRainRain
9:20 PM17 °C16 °C94 %997.3 hPa2.9 kmSW (230°)25.9 km/h46.3 km/h9.14 mmRainHeavy Rain
9:35 PM17 °C16 °C94 %996.6 hPa6.4 kmSSW (210°)27.8 km/h48.1 km/h12.45 mmRainRain
9:54 PM16.7 °C15.6 °C93 %996.6 hPa8 kmSW (220°)46.3 km/h64.9 km/h13.72 mmRainHeavy Rain
10:54 PM15.6 °C14.4 °C93 %996.6 hPa6.4 kmSW (220°)35.2 km/h53.8 km/h3.81 mmRainRain
11:54 PM13.9 °C12.8 °C93 %996.6 hPa16.1 kmWSW (240°)29.6 km/h42.6 km/h2.54 mmRainLight Rain
Hourly data recorded from KGSO, located 0 kilometers away from Greensboro, North Carolina




STORIES FROM OUR PARTNERS